Weather History for KDEC - May, 2014

Change the Weather History Date:

Saturday, May 17, 2014

  Actual Average Record
Temperature  
Mean Temperature 49 °F 63 °F  
Max Temperature 60 °F 75 °F 88 °F (2001)
Min Temperature 37 °F 52 °F 37 °F (2002)
Degree Days  
Heating Degree Days 16 4  
Month to date heating degree days 111 97  
Since 1 July heating degree days 6133 5460  
Cooling Degree Days 0 2  
Month to date cooling degree days 46 24  
Year to date cooling degree days 47 38  
Moisture  
Dew Point 37 °F    
Average Humidity 65    
Maximum Humidity 92    
Minimum Humidity 37    
Precipitation  
Precipitation T in 0.14 in 0.33 in (2006)
Month to date precipitation 2.56 2.53  
Year to date precipitation 9.62 12.69  
Sea Level Pressure  
Sea Level Pressure 30.19 in    
Wind  
Wind Speed 4 mph (West)    
Max Wind Speed 14 mph    
Max Gust Speed 17 mph    
Visibility 10 miles    
Events      
T = Trace of Precipitation, MM = Missing Value Source: NWS Daily Summary

Daily Weather History Graph

Daily Weather History Graph

Search for Another Location

Airport or City:

Trip Planner

Search our weather history database for the weather conditions in past years. The results will help you decide how hot, cold, wet, or windy it might be!

Date:

Astronomy

May. 17, 2014 Rise Set
Actual Time 5:38 AM CDT 8:05 PM CDT
Civil Twilight 5:08 AM CDT 8:36 PM CDT
Nautical Twilight 4:30 AM CDT 9:14 PM CDT
Astronomical Twilight 3:47 AM CDT 9:56 PM CDT
Moon 11:05 PM CDT (5/17) 8:21 AM CDT (5/17)
Length of Visible Light 15h 28m
Length of Day
14h 26m
Waning Gibbous, 89% of the Moon is Illuminated
May 17
Waning Gibbous
May 21
Last Quarter
May 28
New
Jun 5
First Quarter
Jun 12
Full

Hourly Weather History & Observations

Time (CDT) Temp. Windchill Dew Point Humidity Pressure Visibility Wind Dir Wind Speed Gust Speed Precip Events Conditions
12:54 AM 42.1 °F 38.4 °F 39.0 °F 89% 30.14 in 10.0 mi West 5.8 mph - N/A   Overcast
1:54 AM 43.0 °F - 39.9 °F 89% 30.13 in 10.0 mi Calm Calm - 0.00 in   Overcast
2:54 AM 41.0 °F 37.1 °F 37.0 °F 86% 30.14 in 10.0 mi WNW 5.8 mph - N/A   Clear
3:54 AM 39.9 °F 36.7 °F 37.0 °F 89% 30.14 in 10.0 mi West 4.6 mph - N/A   Clear
4:54 AM 39.0 °F 36.8 °F 36.0 °F 89% 30.15 in 10.0 mi WSW 3.5 mph - N/A   Clear
5:54 AM 37.9 °F - 36.0 °F 93% 30.16 in 9.0 mi Calm Calm - N/A   Clear
6:54 AM 41.0 °F - 37.9 °F 89% 30.17 in 7.0 mi Calm Calm - N/A   Clear
7:54 AM 46.9 °F - 41.0 °F 80% 30.18 in 10.0 mi SW 8.1 mph - N/A   Clear
8:54 AM 51.1 °F - 41.0 °F 68% 30.19 in 10.0 mi WNW 6.9 mph - N/A   Clear
9:54 AM 53.1 °F - 39.0 °F 59% 30.20 in 10.0 mi Variable 4.6 mph - N/A   Clear
10:54 AM 52.0 °F - 35.1 °F 53% 30.20 in 10.0 mi WNW 5.8 mph - N/A   Overcast
11:54 AM 53.1 °F - 35.1 °F 50% 30.21 in 10.0 mi WSW 3.5 mph - N/A   Overcast
12:54 PM 54.0 °F - 34.0 °F 47% 30.21 in 10.0 mi WSW 6.9 mph - N/A   Overcast
1:54 PM 57.0 °F - 34.0 °F 42% 30.20 in 10.0 mi WSW 12.7 mph - N/A   Overcast
2:54 PM 57.0 °F - 35.1 °F 44% 30.20 in 10.0 mi WNW 8.1 mph - N/A   Overcast
3:54 PM 59.0 °F - 33.1 °F 38% 30.18 in 10.0 mi NW 8.1 mph - N/A   Mostly Cloudy
4:54 PM 59.0 °F - 34.0 °F 39% 30.18 in 10.0 mi WSW 6.9 mph - N/A   Mostly Cloudy
5:54 PM 57.9 °F - 34.0 °F 41% 30.18 in 10.0 mi Calm Calm - N/A   Mostly Cloudy
6:54 PM 57.9 °F - 34.0 °F 41% 30.19 in 10.0 mi SW 6.9 mph - N/A   Mostly Cloudy
7:54 PM 54.0 °F - 36.0 °F 51% 30.20 in 10.0 mi SW 4.6 mph - N/A   Clear
8:54 PM 51.1 °F - 39.0 °F 63% 30.22 in 10.0 mi Calm Calm - N/A   Clear
9:54 PM 46.9 °F - 39.9 °F 77% 30.23 in 10.0 mi Calm Calm - N/A   Clear
10:54 PM 46.9 °F - 39.0 °F 74% 30.25 in 10.0 mi Calm Calm - N/A   Clear
11:54 PM 46.0 °F - 39.0 °F 76% 30.25 in 10.0 mi Calm Calm - N/A   Clear